GW3823 Weather Reports


Display with metric or nautical units.
time (UTC)temp
F
wind
direction
speed
MPH
gust
MPH
rain 1hr
in
rain 24hr
in
rain mn
in
humidity
%
barometer
mb
20260904075805 48 65 4.0 8.0 0.00 0.00 0.00 61 1013.7
20260904075307 49 45 5.0 8.0 0.00 0.00 0.00 61 1014.0
20260904074807 48 64 5.0 10.0 0.00 0.00 0.00 60 1013.9
20260904074305 48 67 7.0 10.0 0.00 0.00 0.00 60 1013.8
20260904073805 48 54 7.0 10.0 0.00 0.00 0.00 53 1020.1
20260904073305 48 52 5.0 10.0 0.00 0.00 0.00 60 1013.8
20260904072306 49 56 5.0 7.0 0.00 0.00 0.00 59 1013.9
20260904071805 49 54 6.0 7.0 0.00 0.00 0.00 57 1013.9
20260904070805 50 72 3.0 7.0 0.00 0.00 0.00 57 1013.9
20260904070306 49 62 6.0 8.0 0.00 0.00 0.00 56 1013.8
20260904065805 49 72 5.0 6.0 0.00 0.00 0.00 57 1014.5
20260904065306 51 53 2.0 8.0 0.00 0.00 0.00 58 1015.6
20260904063305 50 91 5.0 8.0 0.00 0.00 0.00 57 1015.0
20260904062805 50 93 6.0 12.0 0.00 0.00 0.00 56 1014.0
20260904062306 51 74 5.0 10.0 0.00 0.00 0.00 56 1014.9
20260904060805 53 66 6.0 9.0 0.00 0.00 0.00 52 1020.3
20260904055306 61 63 5.0 9.0 0.00 0.00 0.00 52 1013.7
20260904054305 61 67 4.0 8.0 0.00 0.00 0.00 52 1014.0
20260904053805 61 71 6.0 8.0 0.00 0.00 0.00 51 1021.3
20260904053305 52 74 4.0 9.0 0.00 0.00 0.00 51 1015.9
20260904052307 61 58 6.0 13.0 0.00 0.00 0.00 41 1013.6
20260904051806 61 89 6.0 10.0 0.00 0.00 0.00 50 1013.5
20260904051305 61 52 5.0 12.0 0.00 0.00 0.00 40 1021.4
20260904050806 61 71 7.0 12.0 0.00 0.00 0.00 50 1013.5
20260904050306 61 84 5.0 9.0 0.00 0.00 0.00 50 1013.6
20260904045805 53 88 4.0 7.0 0.00 0.00 0.00 49 1013.6
20260904045307 54 71 4.0 6.0 0.00 0.00 0.00 49 1014.4
20260904044806 55 74 5.0 10.0 0.00 0.00 0.00 40 1015.3
20260904044305 54 95 6.0 10.0 0.00 0.00 0.00 49 1014.1
20260904043805 56 73 6.0 12.0 0.00 0.00 0.00 46 1015.1
20260904043305 54 83 7.0 13.0 0.00 0.00 0.00 47 1014.4
20260904042306 55 53 6.0 9.0 0.00 0.00 0.00 47 1013.8
20260904041805 57 47 5.0 9.0 0.00 0.00 0.00 44 1014.7
20260904041305 56 70 5.0 8.0 0.00 0.00 0.00 44 1013.6
20260904040305 57 66 6.0 12.0 0.00 0.00 0.00 43 1015.3
20260904035805 57 70 8.0 10.0 0.00 0.00 0.00 45 1014.2
20260904035306 58 131 3.0 12.0 0.00 0.00 0.00 45 1014.8
20260904034805 58 72 5.0 9.0 0.00 0.00 0.00 42 1013.8
20260904034305 59 61 5.0 13.0 0.00 0.00 0.00 43 1014.8
20260904033305 59 65 9.0 12.0 0.00 0.00 0.00 39 1014.6
20260904032805 57 62 9.0 12.0 0.00 0.00 0.00 44 1013.7
20260904032306 60 63 6.0 12.0 0.00 0.00 0.00 40 1014.4
20260904031805 59 45 5.0 14.0 0.00 0.00 0.00 40 1013.1
20260904030807 61 56 7.0 13.0 0.00 0.00 0.00 38 1015.0
20260904030305 60 64 8.0 13.0 0.00 0.00 0.00 39 1013.7
20260904025804 60 56 8.0 12.0 0.00 0.00 0.00 39 1014.4
20260904025306 60 59 9.0 15.0 0.00 0.00 0.00 29 1013.4
20260904024804 60 73 10.0 18.0 0.00 0.00 0.00 38 1014.2
20260904024305 60 77 10.0 14.0 0.00 0.00 0.00 39 1012.9
20260904023805 59 51 7.0 14.0 0.00 0.00 0.00 40 1013.7
20260904023305 60 61 6.0 13.0 0.00 0.00 0.00 41 1012.8
20260904022805 60 75 6.0 12.0 0.00 0.00 0.00 41 1013.5
20260904022306 74 55 9.0 16.0 0.00 0.00 0.00 39 1014.2
20260904021805 60 57 9.0 13.0 0.00 0.00 0.00 39 1013.2
20260904021304 75 79 3.0 6.0 0.00 0.00 0.00 40 1014.0
20260904020805 60 53 1.0 6.0 0.00 0.00 0.00 40 1012.9
20260904020305 68 71 5.0 7.0 0.00 0.00 0.00 39 1013.7
20260904015306 62 267 1.0 2.0 0.00 0.05 0.00 39 1013.5
20260904014805 63 182 1.0 3.0 0.00 0.05 0.00 18 1012.6
20260904013805 64 50 2.0 3.0 0.00 0.05 0.00 36 1012.2
20260904013304 64 53 1.0 3.0 0.00 0.05 0.00 35 1013.0
20260904012306 66 80 2.0 6.0 0.00 0.05 0.00 34 1012.7
20260904010805 69 51 3.0 5.0 0.00 0.05 0.00 34 1013.3
20260904010305 67 28 3.0 5.0 0.00 0.05 0.00 33 1012.0
20260904005306 82 15 2.0 2.0 0.00 0.08 0.00 29 1013.0
20260904004805 71 296 2.0 5.0 0.00 0.08 0.00 27 1011.9
20260904004305 82 217 2.0 6.0 0.00 0.08 0.00 25 1012.7
20260904002805 82 227 3.0 5.0 0.00 0.11 0.00 22 1013.2
20260904002306 82 211 2.0 5.0 0.00 0.11 0.00 24 1012.3
20260904001305 82 178 3.0 7.0 0.00 0.11 0.00 21 1013.7
20260904000804 82 203 4.0 9.0 0.00 0.11 0.00 22 1011.7
20260904000305 82 274 3.0 8.0 0.00 0.11 0.00 22 1018.2
20260903235305 82 299 5.0 7.0 0.00 0.11 0.00 21 1012.9
20260903234805 77 246 2.0 6.0 0.00 0.11 0.00 22 1011.7
20260903234305 82 210 4.0 12.0 0.00 0.11 0.00 21 1011.7
20260903233805 82 166 5.0 9.0 0.00 0.11 0.00 20 1013.3
20260903233305 82 209 2.0 8.0 0.00 0.11 0.00 21 1011.5
20260903232805 82 179 0.0 12.0 0.00 0.11 0.00 21 1011.4
20260903232306 82 159 4.0 9.0 0.00 0.11 0.00 22 1015.2
20260903231305 82 207 3.0 13.0 0.00 0.11 0.00 23 1014.8
20260903230806 82 234 4.0 6.0 0.00 0.11 0.00 21 1012.8
20260903225805 82 244 3.0 10.0 0.00 0.11 0.00 21 1011.6
20260903225307 82 194 7.0 13.0 0.00 0.11 0.00 21 1011.5
20260903224805 82 159 5.0 15.0 0.00 0.11 0.00 22 1011.4
20260903223806 82 154 8.0 14.0 0.00 0.11 0.00 22 1011.4
20260903223305 82 266 4.0 10.0 0.00 0.11 0.00 20 1011.7
20260903222804 82 175 3.0 14.0 0.00 0.11 0.00 20 1016.6
20260903222306 82 166 6.0 18.0 0.00 0.11 0.00 21 1011.5
20260903221805 82 155 7.0 18.0 0.00 0.11 0.00 21 1011.5
20260903221305 82 149 6.0 16.0 0.00 0.11 0.00 23 1011.7
20260903220804 82 160 5.0 17.0 0.00 0.11 0.00 22 1011.8
20260903220305 82 167 7.0 16.0 0.00 0.11 0.00 22 1015.1
20260903215805 81 166 5.0 13.0 0.00 0.11 0.00 20 1011.7
20260903214804 81 187 6.0 14.0 0.00 0.11 0.00 21 1011.8
20260903214305 81 154 5.0 14.0 0.00 0.11 0.00 21 1011.7
20260903213804 81 223 3.0 21.0 0.00 0.11 0.00 21 1011.8
20260903213305 81 156 8.0 21.0 0.00 0.11 0.00 21 1011.8
20260903212805 81 226 6.0 13.0 0.00 0.11 0.00 22 1015.5
20260903212306 81 191 5.0 13.0 0.00 0.11 0.00 21 1011.9
20260903211805 77 170 6.0 13.0 0.00 0.11 0.00 23 1012.1
20260903211304 81 177 7.0 15.0 0.00 0.11 0.00 21 1012.0
20260903210805 81 200 3.0 10.0 0.00 0.11 0.00 21 1012.0
20260903210304 81 236 6.0 12.0 0.00 0.11 0.00 21 1012.1
20260903205805 79 167 6.0 14.0 0.00 0.12 0.00 21 1012.3
20260903204304 75 211 5.0 9.0 0.00 0.12 0.00 23 1012.2
20260903203304 79 194 3.0 13.0 0.00 0.12 0.00 23 1012.5
20260903202804 79 194 3.0 13.0 0.00 0.12 0.00 24 1012.5
20260903202306 79 190 6.0 15.0 0.00 0.12 0.00 23 1012.5
20260903201804 79 180 5.0 14.0 0.00 0.12 0.00 23 1012.4
20260903201305 79 238 2.0 9.0 0.00 0.12 0.00 22 1012.5
20260903200806 79 148 7.0 9.0 0.00 0.12 0.00 23 1016.6
20260903200305 79 206 4.0 8.0 0.00 0.12 0.00 23 1012.3
20260903195805 76 239 4.0 13.0 0.00 0.12 0.00 24 1012.5
20260903195306 76 168 3.0 13.0 0.00 0.12 0.00 24 1012.6
20260903194805 76 268 4.0 21.0 0.00 0.12 0.00 25 1012.6
20260903194304 76 177 5.0 15.0 0.00 0.12 0.00 26 1021.5
20260903193805 73 149 3.0 14.0 0.00 0.12 0.00 27 1012.7
20260903192306 76 191 9.0 16.0 0.00 0.12 0.00 28 1012.7
20260903191805 76 102 2.0 10.0 0.00 0.12 0.00 28 1012.6
20260903191305 76 73 4.0 10.0 0.00 0.12 0.00 28 1012.7
20260903185805 74 56 4.0 13.0 0.00 0.12 0.00 30 1013.1
20260903184804 74 163 5.0 15.0 0.00 0.12 0.00 30 1022.2
20260903183804 74 168 8.0 17.0 0.00 0.12 0.00 31 1013.2
20260903183305 74 149 12.0 17.0 0.00 0.12 0.00 29 1013.1
20260903182306 74 190 3.0 12.0 0.00 0.12 0.00 31 1013.3
20260903181304 74 206 5.0 8.0 0.00 0.12 0.00 33 1013.5
20260903180804 74 209 3.0 8.0 0.00 0.12 0.00 34 1013.5
20260903180304 74 196 5.0 8.0 0.00 0.12 0.00 33 1013.5
20260903175804 70 175 5.0 14.0 0.00 0.12 0.00 36 1013.5
20260903175306 71 231 3.0 7.0 0.00 0.12 0.00 35 1022.5
20260903174804 70 232 4.0 12.0 0.00 0.12 0.00 36 1013.5
20260903174304 70 199 4.0 10.0 0.00 0.12 0.00 34 1023.2
20260903173804 70 168 6.0 12.0 0.00 0.12 0.00 36 1013.7
20260903172804 70 168 2.0 15.0 0.00 0.12 0.00 33 1013.7
20260903172306 70 161 5.0 13.0 0.00 0.12 0.00 37 1018.4
20260903171805 70 171 3.0 14.0 0.00 0.12 0.00 37 1013.5
20260903171305 70 64 5.0 17.0 0.00 0.12 0.00 35 1017.7
20260903170804 70 185 3.0 13.0 0.00 0.12 0.00 40 1013.8
20260903170305 70 154 9.0 13.0 0.00 0.12 0.00 40 1021.9
20260903165805 67 178 5.0 14.0 0.00 0.12 0.00 39 1013.7
20260903165305 66 211 6.0 14.0 0.00 0.12 0.00 61 1022.4
20260903164805 67 158 6.0 15.0 0.00 0.12 0.00 40 1013.8
20260903164304 66 174 5.0 12.0 0.00 0.12 0.00 62 1023.0
20260903163805 66 134 3.0 14.0 0.00 0.12 0.00 41 1013.7
20260903163304 66 151 7.0 13.0 0.00 0.12 0.00 51 1018.3
20260903162805 66 146 7.0 12.0 0.00 0.12 0.00 41 1013.7
20260903161805 66 135 7.0 13.0 0.00 0.12 0.00 42 1013.6
20260903161305 65 166 4.0 10.0 0.00 0.12 0.00 46 1013.7
20260903160805 64 141 5.0 12.0 0.00 0.12 0.00 61 1021.7
20260903155804 62 140 6.0 9.0 0.00 0.12 0.00 65 1021.2
20260903155306 61 151 4.0 12.0 0.00 0.12 0.00 53 1013.8
20260903154804 60 150 6.0 12.0 0.00 0.12 0.00 70 1023.7
20260903154304 60 202 6.0 13.0 0.00 0.12 0.00 56 1013.8
20260903153804 56 140 8.0 12.0 0.00 0.12 0.00 71 1024.4
20260903153305 58 141 5.0 12.0 0.00 0.12 0.00 59 1013.6
20260903152804 57 163 6.0 13.0 0.00 0.12 0.00 59 1013.8
20260903152306 57 167 5.0 13.0 0.00 0.12 0.00 60 1013.7
20260903151803 56 158 4.0 9.0 0.00 0.12 0.00 60 1013.8
20260903151304 55 164 5.0 9.0 0.00 0.12 0.00 63 1013.9
20260903150804 53 142 5.0 9.0 0.00 0.12 0.00 63 1014.0
20260903145805 52 151 5.0 9.0 0.00 0.12 0.00 66 1014.1
20260903145306 51 140 4.0 7.0 0.00 0.12 0.00 68 1014.2
20260903144804 50 175 2.0 6.0 0.00 0.12 0.00 69 1014.2
20260903144304 50 167 3.0 8.0 0.00 0.12 0.00 70 1014.2
20260903143804 50 158 5.0 8.0 0.00 0.12 0.00 71 1014.2
20260903143305 50 151 3.0 7.0 0.00 0.12 0.00 85 1014.0
20260903142306 49 114 1.0 6.0 0.00 0.12 0.00 74 1014.2
20260903141804 49 192 2.0 3.0 0.00 0.12 0.00 74 1014.3
20260903141304 48 155 3.0 3.0 0.00 0.12 0.00 76 1014.3
20260903140804 48 159 2.0 3.0 0.00 0.12 0.00 78 1023.4
20260903135306 46 88 1.0 5.0 0.00 0.12 0.00 90 1014.3
20260903134804 46 170 2.0 5.0 0.00 0.12 0.00 81 1014.4
20260903134304 45 132 1.0 5.0 0.00 0.12 0.00 91 1014.3
20260903133803 44 287 0.0 1.0 0.00 0.12 0.00 84 1014.2
20260903133304 45 287 0.0 2.0 0.00 0.12 0.00 85 1014.1
20260903132306 44 128 1.0 2.0 0.00 0.12 0.00 85 1023.2
20260903131804 44 208 0.0 1.0 0.00 0.12 0.00 84 1014.2
20260903131304 44 208 0.0 1.0 0.00 0.12 0.00 85 1021.9
20260903130804 44 208 0.0 1.0 0.00 0.12 0.00 84 1014.0
20260903130304 44 103 0.0 0.0 0.00 0.12 0.00 82 1022.1
20260903125804 44 103 0.0 0.0 0.00 0.12 0.00 87 1013.9
20260903124804 44 103 0.0 0.0 0.00 0.12 0.00 86 1013.8
20260903124304 44 103 0.0 1.0 0.00 0.12 0.00 82 1013.8
20260903122804 48 53 5.0 6.0 0.00 0.12 0.00 92 1013.7
20260903122305 48 53 5.0 6.0 0.00 0.12 0.00 92 1018.5
20260903121804 48 53 5.0 6.0 0.00 0.12 0.00 92 1013.5
20260903121304 48 53 5.0 6.0 0.00 0.12 0.00 92 1013.5
20260903120304 45 53 5.0 6.0 0.00 0.12 0.00 90 1013.6
20260903115803 45 53 5.0 6.0 0.00 0.12 0.00 79 1013.6
20260903115306 45 53 5.0 6.0 0.00 0.12 0.00 90 1013.5
20260903114804 45 53 5.0 6.0 0.00 0.12 0.00 79 1013.6
20260903114303 45 53 5.0 6.0 0.00 0.12 0.00 79 1013.6
20260903113804 46 53 5.0 6.0 0.00 0.12 0.00 79 1019.1
20260903113304 45 53 5.0 6.0 0.00 0.12 0.00 86 1013.5
20260903112804 45 53 5.0 6.0 0.00 0.12 0.00 79 1022.9
20260903112305 45 53 5.0 6.0 0.00 0.12 0.00 79 1013.3
20260903111803 45 53 5.0 6.0 0.00 0.12 0.00 79 1013.6
20260903111304 45 53 5.0 6.0 0.00 0.12 0.00 79 1013.5
20260903110804 49 31 5.0 5.0 0.00 0.12 0.00 92 1013.5
20260903110304 49 31 5.0 5.0 0.00 0.12 0.00 92 1013.5
20260903105804 51 31 5.0 5.0 0.00 0.12 0.00 89 1013.7
20260903105306 51 31 5.0 5.0 0.00 0.12 0.00 89 1022.1
20260903104806 46 31 5.0 5.0 0.00 0.12 0.00 78 1013.6
20260903104304 46 31 5.0 5.0 0.00 0.12 0.00 78 1018.1
20260903103804 46 31 5.0 5.0 0.00 0.12 0.00 78 1013.3
20260903103303 46 31 5.0 5.0 0.00 0.12 0.00 78 1021.5
20260903102306 46 31 5.0 5.0 0.00 0.12 0.00 78 1022.2
20260903101804 46 31 5.0 5.0 0.00 0.12 0.00 78 1013.4
20260903101304 46 31 5.0 5.0 0.00 0.12 0.00 88 1013.7
20260903100804 46 31 5.0 5.0 0.00 0.12 0.00 78 1013.8
20260903100304 46 31 5.0 5.0 0.00 0.12 0.00 89 1018.1
20260903095803 46 31 5.0 5.0 0.00 0.12 0.00 79 1013.6
20260903094803 46 51 3.0 7.0 0.00 0.12 0.00 79 1013.7
20260903094303 47 42 5.0 7.0 0.00 0.12 0.00 76 1013.6
20260903083804 48 28 4.0 7.0 0.00 0.12 0.00 76 1013.4
20260903083303 49 61 5.0 7.0 0.00 0.12 0.00 76 1013.7
20260903082804 48 71 5.0 10.0 0.00 0.12 0.00 75 1013.8
20260903082306 49 59 7.0 9.0 0.00 0.12 0.00 76 1013.8
20260903081805 48 36 7.0 10.0 0.00 0.12 0.00 74 1013.7
20260903081306 48 75 5.0 9.0 0.00 0.12 0.00 74 1022.5
20260903080806 49 62 3.0 8.0 0.00 0.12 0.00 75 1014.0
20260903080305 48 88 3.0 9.0 0.00 0.12 0.00 74 1017.8